Location: *
(51.2667°S, 178.9500°W)
Time: 09:59:54
(UTC+00:00)

Daily predictions for brighter satellites

Satellite Brightness Start Highest point End
(mag) Time Altitude Azimuth Time Altitude Azimuth Time Altitude Azimuth
Cosmos 1461 4.5 12:00:14 10° SSW 12:04:08 36° SE 12:08:07 10° ENE
Cosmos 1892 2.6 12:01:31 10° SSW 12:05:10 65° W 12:06:37 33° NNW
Cosmos 1455 2.5 12:06:46 30° NNE 12:08:17 52° E 12:11:52 10° SSE
Cosmos 371 Rocket 3.5 12:07:50 21° NW 12:11:05 70° WSW 12:16:03 10° SSE
Cosmos 1315 Rocket 3.7 12:07:20 10° SSW 12:11:10 39° W 12:12:56 26° NW
SL-8 R/B 3.7 12:06:53 10° WNW 12:11:40 58° N 12:16:27 10° E
Cosmos 923 Rocket 4.1 12:06:24 10° SSW 12:11:44 79° ESE 12:15:45 18° NNE
USA 307 2.9 12:10:33 10° WSW 12:12:51 38° S 12:14:59 10° ESE
Cosmos 2219 Rocket 2.4 12:08:50 10° SSW 12:14:31 74° ESE 12:19:40 13° NE
Cosmos 2082 Rocket 3.9 12:10:14 10° WNW 12:15:16 30° SW 12:20:20 10° SSE
Cosmos 2360 Rocket 2.3 12:10:22 10° SW 12:16:02 63° WNW 12:19:37 23° N
GENESIS II 4.2 12:12:46 10° SW 12:16:26 73° SE 12:19:22 15° NE
ATLAS 5 CENTAUR R/B 2.8 12:11:32 10° SW 12:17:48 59° SE 12:22:50 10° ENE
ATLAS 3B R/B 4.4 12:15:33 10° W 12:17:52 12° WNW 12:20:10 10° NW
Cosmos 1242 Rocket 4.4 12:15:20 10° SSE 12:18:04 23° ESE 12:20:37 11° ENE
Timation 1 Rocket 4.5 12:16:04 23° N 12:19:49 65° ENE 12:25:47 10° SE
SL-27 R/B 3.5 12:20:59 24° NE 12:21:51 28° ENE 12:24:37 10° SE
In-Cosmos 22 Rocket 4.3 12:16:44 10° SSW 12:22:37 82° ESE 12:26:40 20° NNE
Cosmos 1680 Rocket 3.7 12:18:48 10° SSW 12:24:13 76° ESE 12:28:41 15° NNE
Helios 1A Rocket 4.4 12:23:17 10° SE 12:26:40 26° E 12:28:51 17° NE
Cosmos 2084 3.6 12:24:50 24° NNW 12:27:34 72° NE 12:32:22 10° SE
Cosmos 2100 Rocket 4.2 12:23:21 10° S 12:29:36 68° ESE 12:34:43 16° NNE
USA 306 3.0 12:26:46 10° WSW 12:30:01 56° S 12:33:36 10° E
Resurs 1-4 Rocket 2.2 12:27:37 18° NNE 12:31:40 78° ESE 12:37:01 10° SSW
Cosmos 1782 Rocket 4.3 12:30:08 21° NW 12:32:50 46° WSW 12:37:13 10° S
ALOS 4.4 12:32:54 10° ENE 12:36:40 24° ESE 12:40:27 10° S
Cosmos 1459 Rocket 4.3 12:31:02 10° S 12:37:31 71° ESE 12:42:52 15° NNE
Cosmos 2112 Rocket 4.1 12:35:19 10° SSW 12:40:46 87° ESE 12:45:21 15° NNE
MSX 3.9 12:36:05 16° NNE 12:40:50 81° ESE 12:46:41 10° SSW
Cosmos 2322 Rocket 3.1 12:35:59 10° SW 12:40:57 32° WNW 12:43:43 21° NNW
Meteor 1-4 Rocket 3.0 12:42:48 10° SSW 12:45:52 37° W 12:46:53 29° NW
Cosmos 1975 Rocket 4.1 12:42:24 10° SSW 12:46:24 33° W 12:48:35 21° NW
Cosmos 1802 Rocket 4.3 12:40:09 10° S 12:46:32 65° ESE 12:52:15 12° NNE
AQUA 4.3 12:44:52 12° NNE 12:49:13 58° ESE 12:53:58 10° S
FENGYUN 3A 4.5 12:44:17 10° NE 12:49:29 50° ESE 12:54:44 10° S
Cosmos 1825 3.5 12:48:12 10° SSW 12:51:15 26° W 12:52:36 20° NW
ALOS 2 3.0 12:53:01 10° S 12:57:26 57° WSW 13:00:16 21° NW
SAR-Lupe-4 4.0 12:57:35 27° NNW 12:59:14 47° W 13:02:48 10° SSW
NPP 3.8 12:56:29 20° N 13:00:15 62° WNW 13:05:42 10° SSW
Cosmos 2297 Rocket 4.0 13:01:30 10° NNE 13:05:40 21° E 13:09:51 10° SE
Cosmos 1536 Rocket 3.7 13:01:30 10° SSW 13:06:02 68° W 13:08:59 21° N
Okean 1 Rocket 3.4 13:05:24 19° N 13:08:32 60° E 13:12:57 10° SSE
SL-16 R/B 4.2 13:08:37 10° WSW 13:11:11 13° W 13:13:30 11° WNW
Cosmos 921 Rocket 3.2 13:07:51 10° SSW 13:11:59 52° WNW 13:14:38 21° N
ISS -3.8 13:11:32 10° W 13:14:59 73° NNW 13:18:23 10° ENE
Cosmos 494 Rocket 4.3 13:11:11 10° SSW 13:16:28 70° ESE 13:21:37 10° NNE
Cosmos 1953 4.5 13:14:17 10° WNW 13:17:01 17° WSW 13:19:47 10° SSW
Sich 1 Rocket 3.9 13:16:35 20° NNW 13:19:42 64° WSW 13:24:21 10° S
Cosmos 372 Rocket 4.1 13:16:42 19° NW 13:20:27 70° WSW 13:25:38 10° SSE
Cosmos 2061 Rocket 4.2 13:14:11 10° S 13:20:29 74° ESE 13:26:45 10° NNE
CZ-4 R/B 4.4 13:16:14 10° NNE 13:20:49 57° ESE 13:25:30 10° S
Okean 2 Rocket 3.3 13:18:31 20° NNW 13:21:28 64° WSW 13:25:56 10° S
IDEFIX/ARIANE 42P 3.1 13:18:05 19° NNW 13:21:39 45° W 13:26:48 10° SSW
COSMOS 2428 2.7 13:16:23 10° SSW 13:22:07 70° WNW 13:27:47 10° NNE
Cosmos 2333 Rocket 3.4 13:18:18 10° SW 13:22:57 26° WNW 13:25:55 17° NW
CZ-2D R/B 2.7 13:20:21 18° NNW 13:24:11 46° W 13:29:32 10° SSW
USA 305 2.3 13:22:26 10° WSW 13:24:23 40° S 13:26:12 10° E
Cosmos 2016 Rocket 4.1 13:20:40 10° SSW 13:27:10 81° W 13:33:06 12° N
ADEOS II 2.2 13:24:48 16° N 13:29:03 60° WNW 13:34:20 10° SSW
CZ-2C R/B 3.6 13:25:01 10° NNE 13:30:49 73° ESE 13:36:43 10° S
Cosmos 2237 Rocket 2.7 13:25:14 10° SSW 13:30:59 64° SE 13:36:42 10° NE
CZ-2C R/B 3.9 13:31:53 10° NE 13:36:29 38° ESE 13:41:01 10° S
Cosmos 1937 Rocket 3.9 13:33:30 15° NW 13:37:39 54° WSW 13:42:48 10° SSE
USA 276 4.0 13:38:41 15° NNE 13:39:30 16° NE 13:41:31 10° ENE
IRIDIUM 103 4.4 13:35:53 10° S 13:41:14 82° E 13:46:31 10° N
Cosmos 2233 Rocket 4.1 13:35:45 10° S 13:42:11 88° E 13:48:29 10° N
Cosmos 1461 3.3 13:38:40 10° SW 13:42:42 44° WNW 13:46:51 10° NNE
BREEZE M DEB (TANK) 2.1 13:41:17 10° W 13:43:21 46° N 13:46:31 10° ENE
Cosmos 1455 4.3 13:41:13 10° WNW 13:43:27 15° WSW 13:45:41 10° SSW
Cosmos 1455 Rocket 3.5 13:41:15 12° N 13:45:10 59° E 13:49:31 10° SSE
Cosmos 2123 Rocket 4.1 13:40:53 15° NNW 13:46:08 72° WSW 13:52:25 10° S
USA 215 3.4 13:41:01 10° NE 13:47:27 54° NW 13:53:57 10° WSW
USA 307 1.2 13:45:58 10° WSW 13:48:14 82° SSE 13:50:25 10° ENE
Cosmos 2322 4.4 13:44:10 10° SW 13:49:28 38° WNW 13:54:18 12° N
Cosmos 1242 Rocket 3.6 13:48:41 10° SW 13:51:29 26° W 13:53:12 17° NW
SL-8 R/B 3.8 13:49:07 10° W 13:53:55 59° N 13:58:41 10° ENE
Cosmos 2058 4.1 13:50:00 10° S 13:54:00 43° ESE 13:57:57 10° NE
SL-27 R/B 4.1 13:53:19 10° WNW 13:55:44 21° SW 13:58:17 10° S
Cosmos 2219 Rocket 3.5 13:53:37 10° SW 13:57:54 22° WNW 14:01:20 13° NW
Cosmos 2360 Rocket 4.2 13:57:15 10° WSW 13:58:51 11° W 14:00:28 10° WNW
IRIDIUM 106 4.4 13:54:14 10° S 13:59:33 74° W 14:04:48 10° N
Meteor 2-15 Rocket 4.5 13:54:29 10° SSW 14:00:41 81° W 14:06:50 10° N
Helios 1A Rocket 3.9 13:57:44 10° S 14:01:21 34° WSW 14:04:30 12° NW
ATLAS 5 CENTAUR R/B 2.6 13:56:29 10° SW 14:01:44 35° WNW 14:06:03 10° N
Cosmos 2227 Rocket 3.6 13:57:27 10° NNE 14:02:24 32° ENE 14:07:25 10° SE
USA 306 2.4 14:01:58 10° WSW 14:05:26 61° NNW 14:09:09 10° NE
Cosmos 1346 Rocket 3.2 14:02:52 14° NNW 14:06:01 50° WSW 14:09:54 10° S
NOSS 3-4 (A) 4.0 13:59:42 10° SW 14:07:11 73° SE 14:13:33 10° NE
NOSS 3-4 (C) 4.1 13:59:39 10° SW 14:07:12 73° SE 14:13:40 10° NE
Thor Agena Rocket 3.6 14:02:41 10° N 14:07:53 74° WNW 14:13:15 10° SSW
Cosmos 2285 Rocket 4.3 14:02:27 10° SSW 14:08:52 76° ESE 14:15:12 10° NNE
Cosmos 44 4.0 14:06:00 10° SW 14:10:14 52° SE 14:14:35 10° ENE
Resurs 1-4 Rocket 3.7 14:08:41 11° NW 14:12:05 19° W 14:15:48 10° SW
ALOS 2.5 14:09:01 10° N 14:13:37 54° W 14:18:17 10° SSW
NOSS 0 Rocket 4.3 14:10:42 10° SW 14:16:36 46° WNW 14:22:29 10° N
MOZ.5/SAFIR/RUBIN 5/SL-8 4.0 14:17:01 10° SSE 14:21:45 70° ENE 14:26:23 10° N
Cosmos 1048 Rocket 4.4 14:17:48 10° SW 14:22:58 46° WNW 14:28:01 10° N
Cosmos 1544 Rocket 4.0 14:19:27 10° N 14:23:46 61° E 14:28:12 10° SSE
Cosmos 1626 Rocket 3.7 14:22:15 10° S 14:26:50 83° E 14:31:18 10° NNE
USA 281 3.7 14:24:46 10° NE 14:31:19 70° ESE 14:37:56 10° SSW
SL-16 R/B 2.9 14:26:06 10° SSW 14:31:48 62° SE 14:37:29 10° NE
IRS-1D 3.7 14:26:59 10° N 14:32:21 72° WNW 14:37:48 10° SSW
Cosmos 2228 4.0 14:30:51 10° NNE 14:34:57 46° E 14:39:07 10° SSE
Cosmos 2084 Rocket 4.2 14:30:58 10° WSW 14:35:23 38° NW 14:39:45 10° N
Cosmos 2298 Rocket 4.5 14:34:47 10° N 14:40:02 61° ENE 14:45:20 10° SSE
SL-24 R/B - RUBIN 2 4.1 14:35:08 10° NW 14:40:31 72° SW 14:45:18 10° SE
Lacrosse 5 4.4 14:44:55 10° NE 14:46:10 11° ENE 14:47:25 10° ENE
PAYLOAD A 3.9 14:42:26 10° N 14:47:09 65° WNW 14:52:00 10° SSW
Cosmos 2297 Rocket 2.3 14:43:23 10° NW 14:49:04 78° WSW 14:54:51 10° SSE
Cosmos 1980 4.3 14:45:49 10° SW 14:51:00 36° WNW 14:56:08 10° N
